Погода в Целинном

Россия / Омская область     53°56′59″N   74°18′59″E
темп.,
°C
ветер,
м/с
пор.,
м/с
влажн.,
%
обл.,
%
осадки,
мм/ч
давл.,
гПа
погр.,
м
15 апреля, чт
чт1500:00+1з349526 0.0 102949
03:00+2з3498100 0.0 102854
06:00+2зюз3499100 0.1 102862
09:00+2з37100100 0.0 1027121
12:00+5з4810092 0.0 1026171
15:00+9з479672 0.0 1025223
18:00+8зсз249770 0.0 102452
21:00+5зсз339219 0.0 102328
16 апреля, пт
пт1600:00+4з33885 0.0 102229
03:00+4зюз33868 0.0 102028
06:00+5зюз469147 0.0 102062
09:00+8зюз4108842 0.0 1019259
12:00+13з69650 0.0 1018571
15:00+15зсз57570 0.0 1017930
18:00+8ссв91286100 0.0 1019448
21:00+6св61081100 0.0 1022700
17 апреля, сб
сб1700:00+5св5977100 0.0 1022740
03:00+2св59845 0.0 1023411
06:000св47875 0.0 1023286
09:00+2св337429 0.0 1024446
12:00+5ссз345715 0.0 10231068
15:00+7ссз574664 0.0 10231730
18:00+8сз584371 0.0 10221948
21:00+5зсз22591 0.0 102312
18 апреля, вс
вс1800:00+4зюз336485 0.0 102235
03:00+3юз3469100 0.0 102149
06:00+2ююз4973100 0.0 1019153
09:00+5ююз61265100 0.0 1017523
12:00+8юз81157100 0.1 10131368
15:00+11з81141100 0.1 10092316
18:00+8з91477100 0.6 10081329
21:00+3сз10135998 0.2 10111215
19 апреля, пн
пн1900:00−3сз10146596 0.2 10151296
03:00−4сз10146173 0.0 10171230
06:00−5сз9136069 0.0 1020962
09:00−5ссз81051100 0.0 10231062
12:00−2ссз7841100 0.0 10251586
15:000ссз7835100 0.0 10252199
18:00−1ссз7736100 0.0 10261949
21:00−3ссз484926 0.0 1028326